Waarnemingen

Advertentie
Mijn weer
Abbeville, Frankrijk (7005): temperatuur & dauwpunt: 15.03.2019 13:00:00 - 21.03.2019 13:00:00 (CET)Abbeville, Frankrijk (7005): temperatuur 5cm: 15.03.2019 13:00:00 - 21.03.2019 13:00:00 (CET)Abbeville, Frankrijk (7005): temperatuur -20cm & temperatuur -100cm: 15.03.2019 13:00:00 - 21.03.2019 13:00:00 (CET)Abbeville, Frankrijk (7005): windsnelheid & windstoten: 15.03.2019 13:00:00 - 21.03.2019 13:00:00 (CET)Abbeville, Frankrijk (7005): windrichting: 15.03.2019 13:00:00 - 21.03.2019 13:00:00 (CET)Abbeville, Frankrijk (7005): luchtdruk: 15.03.2019 13:00:00 - 21.03.2019 13:00:00 (CET)Abbeville, Frankrijk (7005): zicht: 15.03.2019 13:00:00 - 21.03.2019 13:00:00 (CET)Abbeville, Frankrijk (7005): Zonneschijnduur: 15.03.2019 13:00:00 - 21.03.2019 13:00:00 (CET)Abbeville, Frankrijk (7005): neerslag: 15.03.2019 13:00:00 - 21.03.2019 13:00:00 (CET)
Datum & Tijd tt [°C] td [°C] tt 5cm [°C] tt -20cm [°C] tt -100cm [°C] ff [km/u] ff [kn] fx [km/u] fx [kn] dd ppp [hPa] vv [km] sd [min] rr [mm]
21.03.2019 13:00:00 9,9 8,0 10,8 8,4 8,3 11 6 16 9 WNW 1035,1 19 0 0,0
21.03.2019 12:00:00 9,8 8,2 10,7 8,3 8,3 9 5 13 7 WNW 1035,4 19 0 0,0
21.03.2019 11:00:00 9,6 8,8 9,4 8,2 8,3 6 3 8 4 W 1035,5 19 0 0,0
21.03.2019 10:00:00 8,0 7,7 7,5 8,2 8,3 6 4 9 5 ZZO 1035,5 11 0 0,0
21.03.2019 09:00:00 6,6 6,3 5,9 8,2 8,3 7 4 11 6 ZZO 1035,3 5 0 0,0
21.03.2019 08:00:00 5,4 5,1 4,8 8,3 8,3 7 4 10 6 ZO 1035,2 3,2 0 0,0
21.03.2019 07:00:00 4,8 4,5 4,6 8,4 8,3 5 3 8 4 ZO 1034,9 3,3 0 0,0
21.03.2019 06:00:00 4,7 4,4 4,1 8,5 8,3 2 1 5 3 OZO 1034,8 2,6 0 0,0
21.03.2019 05:00:00 4,1 3,8 3,1 8,7 8,3 2 1 6 3 OZO 1034,7 0,3 0 0,2
21.03.2019 04:00:00 3,6 3,3 3,1 8,8 8,3 5 3 8 5 ZO 1034,5 0,1 0 0,0
21.03.2019 03:00:00 3,8 3,5 3,3 8,9 8,3 4 2 7 4 ZO 1034,7 0,1 0 0,0
21.03.2019 02:00:00 4,3 3,9 3,5 9,0 8,3 3 2 6 3 ZZO 1035,3 0,1 0 0,0
21.03.2019 01:00:00 4,9 4,5 4,2 9,1 8,3 0 0 4 2 N 1035,4 0,1 0 0,0
21.03.2019 00:00:00 5,8 5,4 5,5 9,2 8,3 0 0 6 3 N 1035,4 0,1 0 0,0
20.03.2019 23:00:00 6,0 5,6 5,6 9,3 8,3 2 1 8 5 Z 1035,5 0,1 0 0,2
20.03.2019 22:00:00 6,4 5,8 5,9 9,4 8,3 2 1 5 3 W 1035,4 0,1 0 0,0
20.03.2019 21:00:00 7,3 6,6 6,7 9,5 8,3 4 2 11 6 WZW 1035,3 0,2 0 0,0
20.03.2019 20:00:00 7,6 6,5 6,5 9,5 8,3 7 4 15 8 W 1035,1 4,4 0 0,0
20.03.2019 19:00:00 8,9 7,0 8,2 9,4 8,3 11 6 19 11 WNW 1034,6 12 24 0,0
20.03.2019 18:00:00 11,3 6,8 13,2 9,2 8,2 15 8 22 12 NW 1034,1 20 58 0,0
20.03.2019 17:00:00 12,7 6,9 13,7 9,0 8,2 10 5 18 10 WNW 1033,8 20 57 0,0
20.03.2019 16:00:00 12,5 7,2 14,6 8,7 8,2 11 6 21 11 WZW 1033,8 19 41 0,0
20.03.2019 15:00:00 11,5 7,6 13,1 8,4 8,3 12 6 23 12 NW 1034,8 20 27 0,0
20.03.2019 14:00:00 10,5 7,9 12,1 8,1 8,2 20 11 27 15 NW 1035,3 13 28 0,0
20.03.2019 13:00:00 10,6 7,7 12,0 7,8 8,2 17 9 24 13 NW 1034,9 14 5 0,0
20.03.2019 12:00:00 11,8 7,5 13,3 7,6 8,3 9 5 16 9 WZW 1034,4 19 20 0,0
20.03.2019 11:00:00 10,7 8,3 11,6 7,4 8,3 8 4 18 10 WZW 1034,6 15 29 0,0
20.03.2019 10:00:00 8,4 7,8 7,3 7,3 8,2 6 3 10 6 Z 1034,6 6 30 0,0
20.03.2019 09:00:00 6,4 5,7 6,2 7,4 8,3 5 3 11 6 Z 1034,4 0,5 0 0,0
20.03.2019 08:00:00 5,9 4,9 3,7 7,5 8,2 6 3 11 6 ZW 1033,8 0,6 4 0,0
20.03.2019 07:00:00 4,6 2,8 3,1 7,6 8,3 6 3 10 5 ZZO 1033,3 20 0 0,0
20.03.2019 06:00:00 4,9 2,9 3,3 7,7 8,3 5 3 12 6 ZZW 1032,8 20 0 0,0
20.03.2019 05:00:00 4,9 2,9 3,7 7,8 8,3 7 4 13 7 Z 1032,4 20 0 0,0
20.03.2019 04:00:00 5,4 3,2 5,0 7,9 8,3 7 4 11 6 ZZO 1032,5 20 0 0,0
20.03.2019 03:00:00 5,5 3,7 3,9 8,0 8,3 7 4 10 5 ZZO 1032,8 20 0 0,0
20.03.2019 02:00:00 5,0 3,2 3,1 8,2 8,3 6 3 9 5 ZZO 1032,7 16 0 0,0
20.03.2019 01:00:00 4,5 2,8 2,8 8,4 8,2 4 2 8 4 ZZW 1032,7 19 0 0,0
20.03.2019 00:00:00 5,1 3,3 3,5 8,6 8,3 4 2 9 5 Z 1032,3 19 0 0,0
19.03.2019 23:00:00 5,5 3,3 3,5 8,7 8,3 4 2 8 4 ZZW 1032,2 20 0 0,0
19.03.2019 22:00:00 6,2 3,7 4,0 8,9 8,3 4 2 8 4 ZZW 1032,0 20 0 0,0
19.03.2019 21:00:00 6,6 3,9 4,2 9,0 8,3 3 2 9 5 ZW 1031,7 20 0 0,0
19.03.2019 20:00:00 7,4 4,9 5,2 9,0 8,2 5 3 12 7 W 1031,0 20 0 0,0
19.03.2019 19:00:00 9,1 5,1 7,9 8,9 8,3 9 5 20 11 W 1030,5 20 20 0,0
19.03.2019 18:00:00 10,7 5,4 12,2 8,7 8,3 14 7 21 11 W 1029,8 20 60 0,0
19.03.2019 17:00:00 11,2 5,7 12,4 8,4 8,2 16 8 24 13 W 1029,4 20 42 0,0
19.03.2019 16:00:00 12,4 5,1 14,6 8,0 8,2 15 8 25 13 W 1029,2 20 54 0,0
19.03.2019 15:00:00 12,0 5,8 12,8 7,7 8,2 16 9 27 14 WNW 1029,1 20 41 0,0
19.03.2019 14:00:00 11,8 5,6 12,2 7,4 8,2 14 8 22 12 W 1029,3 20 20 0,0
19.03.2019 13:00:00 10,3 5,5 10,7 7,1 8,3 16 9 21 11 W 1029,6 20 0 0,0
19.03.2019 12:00:00 10,4 5,8 13,0 6,8 8,3 6 4 16 8 W 1029,1 19 38 0,0
19.03.2019 11:00:00 10,0 7,8 8,8 6,7 8,3 6 4 13 7 ZZW 1029,0 17 54 0,0
19.03.2019 10:00:00 6,3 5,4 5,7 6,7 8,2 3 1 13 7 Z 1028,7 17 44 0,0
19.03.2019 09:00:00 3,8 3,4 1,8 6,8 8,2 10 6 15 8 ZZO 1028,5 10 60 0,0
19.03.2019 08:00:00 3,1 2,7 1,4 6,9 8,2 6 3 12 6 Z 1028,0 8 38 0,0
19.03.2019 07:00:00 2,2 1,6 0,7 7,1 8,2 7 4 11 6 ZZO 1027,2 6 0 0,2
19.03.2019 06:00:00 2,0 1,4 0,7 7,3 8,3 8 4 13 7 ZZO 1027,2 4,3 0 0,0
19.03.2019 05:00:00 2,6 2,0 0,8 7,4 8,3 7 4 11 6 ZZO 1026,9 6 0 0,0
19.03.2019 04:00:00 2,7 2,0 1,0 7,6 8,3 6 3 10 6 ZZO 1026,4 6 0 0,0
19.03.2019 03:00:00 3,0 2,1 1,6 7,7 8,2 8 4 12 6 ZZO 1026,2 6 0 0,0
19.03.2019 02:00:00 3,6 2,7 2,2 7,9 8,2 6 3 9 5 Z 1026,0 8 0 0,0
19.03.2019 01:00:00 4,1 3,1 2,3 8,0 8,3 5 3 8 4 Z 1025,9 8 0 0,0
19.03.2019 00:00:00 4,7 3,7 2,6 8,2 8,2 6 3 8 4 ZZO 1025,6 11 0 0,0
18.03.2019 23:00:00 4,6 3,3 2,6 8,4 8,2 6 3 8 5 ZZO 1025,2 10 0 0,0
18.03.2019 22:00:00 5,4 3,9 3,6 8,5 8,2 8 4 10 5 W 1024,9 16 0 0,0
18.03.2019 21:00:00 5,9 4,1 3,5 8,6 8,2 7 4 9 5 WZW 1024,6 18 0 0,0
18.03.2019 20:00:00 6,1 3,6 4,3 8,7 8,2 6 3 10 5 W 1024,1 20 0 0,0
18.03.2019 19:00:00 7,5 4,1 6,4 8,6 8,2 10 6 23 12 W 1023,7 20 36 0,0
18.03.2019 18:00:00 8,6 3,6 8,9 8,5 8,2 16 9 26 14 W 1023,1 20 45 0,0
18.03.2019 17:00:00 9,4 2,7 10,6 8,3 8,2 17 9 29 16 W 1022,5 20 58 0,0
18.03.2019 16:00:00 9,9 2,0 10,5 8,1 8,2 17 9 29 16 W 1022,4 20 56 0,0
18.03.2019 15:00:00 9,5 2,8 10,7 7,9 8,2 19 10 30 16 W 1022,3 20 24 0,0
18.03.2019 14:00:00 8,9 2,9 10,5 7,7 8,2 22 12 34 18 WNW 1022,1 20 9 0,0
18.03.2019 13:00:00 8,8 4,0 10,1 7,5 8,2 24 13 34 18 WNW 1022,1 19 34 0,0
18.03.2019 12:00:00 8,5 4,5 9,5 7,4 8,2 24 13 34 18 WNW 1022,0 19 29 0,0
18.03.2019 11:00:00 7,7 3,5 8,5 7,4 8,2 24 13 34 18 WNW 1021,5 19 17 0,0
18.03.2019 10:00:00 7,7 4,1 7,3 7,3 8,2 22 12 31 17 WNW 1020,9 20 26 0,0
18.03.2019 09:00:00 6,8 3,9 6,0 7,4 8,2 16 9 23 12 WNW 1020,2 20 6 0,0
18.03.2019 08:00:00 6,0 3,8 4,4 7,5 8,2 10 5 17 9 W 1019,6 20 7 0,0
18.03.2019 07:00:00 5,8 3,5 4,7 7,5 8,2 10 5 18 10 WNW 1018,8 20 0 0,0
18.03.2019 06:00:00 5,8 3,6 4,5 7,6 8,2 10 6 22 12 NW 1018,2 20 0 0,0
18.03.2019 05:00:00 5,4 3,1 4,3 7,7 8,2 16 9 26 14 WNW 1017,4 20 0 0,0
18.03.2019 04:00:00 6,0 3,2 5,0 7,8 8,2 15 8 31 17 WNW 1016,7 20 0 0,0
18.03.2019 03:00:00 6,1 3,1 4,9 7,9 8,2 14 8 29 16 WNW 1016,2 20 0 0,0
18.03.2019 02:00:00 6,2 2,6 5,1 8,0 8,2 19 11 33 18 WNW 1015,7 20 0 0,0
18.03.2019 01:00:00 6,8 2,7 5,2 8,0 8,2 20 11 34 18 WNW 1014,7 20 0 0,2
18.03.2019 00:00:00 6,9 3,0 6,0 8,1 8,2 19 10 36 19 W 1014,3 20 0 0,0
17.03.2019 23:00:00 7,2 1,9 5,4 8,2 8,2 20 11 44 24 W 1013,8 20 0 0,2
17.03.2019 22:00:00 7,1 3,7 5,3 8,4 8,1 30 16 48 26 WZW 1012,9 15 0 0,6
17.03.2019 21:00:00 7,1 3,3 6,2 8,5 8,2 21 11 49 26 WZW 1012,6 20 0 0,0
17.03.2019 20:00:00 7,1 2,0 6,0 8,6 8,2 28 15 45 24 WZW 1012,4 20 0 0,0
17.03.2019 19:00:00 7,1 1,8 6,2 8,6 8,1 26 14 51 28 WZW 1011,8 20 16 0,0
17.03.2019 18:00:00 7,9 1,3 7,5 8,6 8,1 34 19 53 29 W 1011,1 20 34 0,0
17.03.2019 17:00:00 8,0 0,9 7,7 8,6 8,1 34 19 57 31 W 1010,3 20 47 0,0
17.03.2019 16:00:00 8,4 1,1 6,4 8,5 8,1 40 21 61 33 W 1009,7 20 18 0,0
17.03.2019 15:00:00 8,0 1,2 8,0 8,5 8,2 39 21 59 32 W 1009,3 18 28 0,0
17.03.2019 14:00:00 8,2 2,6 7,9 8,4 8,1 33 18 53 29 W 1008,6 20 22 0,0
17.03.2019 13:00:00 7,7 1,5 7,3 8,4 8,1 35 19 53 28 W 1008,5 20 9 0,0
17.03.2019 12:00:00 7,2 3,4 5,2 8,4 8,1 26 14 47 26 WNW 1007,5 20 8 0,4
17.03.2019 11:00:00 8,1 2,1 7,2 8,4 8,1 35 19 51 28 W 1006,6 20 38 0,0
17.03.2019 10:00:00 7,6 2,3 7,5 8,5 8,1 32 18 46 25 W 1006,1 20 42 0,0
17.03.2019 09:00:00 7,7 2,8 6,2 8,6 8,1 30 16 47 25 W 1004,9 20 36 0,0
17.03.2019 08:00:00 6,9 2,8 5,7 8,7 8,1 22 12 39 21 W 1003,8 20 6 0,0
17.03.2019 07:00:00 7,1 2,8 6,2 8,8 8,1 25 14 39 21 W 1003,1 20 0 0,0
17.03.2019 06:00:00 7,3 4,8 6,4 8,9 8,1 22 12 38 21 W 1002,2 20 0 0,0
17.03.2019 05:00:00 7,4 6,7 6,5 9,0 8,1 20 11 39 21 W 1001,4 20 0 0,0
17.03.2019 04:00:00 7,4 6,7 6,6 9,0 8,1 32 18 61 33 W 1000,9 14 0 1,4
17.03.2019 03:00:00 8,8 6,8 7,6 9,1 8,1 23 13 45 24 WZW 1000,3 6 0 0,8
17.03.2019 02:00:00 9,3 5,8 8,0 9,2 8,1 22 12 54 29 ZZW 1000,1 13 0 0,0
17.03.2019 01:00:00 9,9 4,7 9,1 9,3 8,1 21 11 51 28 ZZW 1000,7 20 0 0,0
17.03.2019 00:00:00 10,1 4,2 9,6 9,3 8,1 21 12 53 29 ZZW 1001,4 20 0 0,0
16.03.2019 23:00:00 10,4 3,9 9,8 9,4 8,1 26 14 59 32 ZZW 1002,4 20 0 0,0
16.03.2019 22:00:00 10,7 4,2 10,1 9,5 8,1 27 14 58 31 ZW 1003,6 20 0 0,0
16.03.2019 21:00:00 11,3 4,3 10,6 9,5 8,1 24 13 54 29 ZW 1003,9 20 0 0,0
16.03.2019 20:00:00 12,1 5,5 11,4 9,5 8,1 15 8 41 22 ZZW 1004,3 20 0 0,0
16.03.2019 19:00:00 12,7 5,6 11,6 9,4 8,1 16 9 34 18 ZW 1004,6 20 0 0,0
16.03.2019 18:00:00 14,2 6,3 13,9 9,3 8,1 14 8 41 22 ZW 1004,9 20 28 0,0
16.03.2019 17:00:00 14,4 6,5 14,2 9,1 8,1 19 10 40 22 ZW 1005,6 20 23 0,0
16.03.2019 16:00:00 14,2 6,8 13,8 9,0 8,1 21 11 44 24 ZW 1006,6 20 18 0,0
16.03.2019 15:00:00 13,0 5,6 13,1 8,9 8,1 27 15 51 28 WZW 1008,2 20 13 0,0
16.03.2019 14:00:00 12,2 5,8 11,5 8,8 8,0 27 14 47 26 WZW 1009,3 20 2 0,0
16.03.2019 13:00:00 11,1 5,8 11,1 8,8 8,1 22 12 46 25 WZW 1010,6 20 0 0,0
16.03.2019 12:00:00 10,8 6,0 10,4 8,8 8,1 23 13 51 27 WZW 1011,1 20 0 0,0
16.03.2019 11:00:00 10,6 6,0 10,1 8,8 8,0 24 13 56 30 WZW 1011,6 20 0 0,0
16.03.2019 10:00:00 10,5 6,3 10,1 8,8 8,1 24 13 56 30 WZW 1011,8 20 0 0,0
16.03.2019 09:00:00 10,3 6,3 9,4 8,8 8,1 23 12 49 26 ZW 1012,3 20 0 0,0
16.03.2019 08:00:00 9,9 6,6 8,5 8,9 8,1 24 13 46 25 WZW 1012,8 20 0 0,0
16.03.2019 07:00:00 9,4 6,8 8,5 8,9 8,1 26 14 57 31 ZW 1012,8 14 0 0,0
16.03.2019 06:00:00 9,9 7,3 8,9 8,9 8,0 23 13 63 34 ZW 1013,1 20 0 0,0
16.03.2019 05:00:00 10,3 7,4 8,9 8,9 8,0 34 19 65 35 WZW 1013,5 20 0 0,0
16.03.2019 04:00:00 9,9 8,0 8,9 8,9 8,0 34 18 61 33 WZW 1013,5 20 0 0,0
16.03.2019 03:00:00 9,7 8,6 9,0 8,9 8,0 23 12 54 29 WZW 1014,3 4,3 0 0,0
16.03.2019 02:00:00 10,3 8,7 9,2 8,9 8,0 36 20 70 38 WZW 1014,6 20 0 0,0
16.03.2019 01:00:00 10,5 9,1 9,3 8,9 8,0 41 22 72 39 WZW 1014,9 20 0 0,2
16.03.2019 00:00:00 10,3 9,5 9,4 9,0 8,0 42 23 74 40 WZW 1015,0 16 0 0,2
15.03.2019 23:00:00 10,1 9,6 9,3 9,0 8,1 44 24 69 37 WZW 1014,6 11 0 0,2
15.03.2019 22:00:00 10,2 9,3 9,5 9,0 8,0 41 22 85 46 WZW 1014,3 4,0 0 0,4
15.03.2019 21:00:00 10,2 9,1 9,5 9,0 8,0 46 25 74 40 WZW 1014,0 5 0 0,0
15.03.2019 20:00:00 10,3 9,1 9,6 9,0 8,1 49 26 87 47 WZW 1013,5 4,9 0 0,0
15.03.2019 19:00:00 10,7 9,1 10,2 8,9 8,0 49 27 80 43 W 1013,0 9 0 0,0
15.03.2019 18:00:00 10,9 9,0 10,6 8,9 8,0 45 25 77 41 WZW 1012,6 12 0 0,0
15.03.2019 17:00:00 11,1 9,4 10,5 8,8 8,0 50 27 87 47 WZW 1012,2 13 0 0,0
15.03.2019 16:00:00 11,4 9,5 11,2 8,8 8,0 49 27 90 49 WZW 1012,3 19 0 0,0
15.03.2019 15:00:00 11,4 9,6 10,3 8,7 8,1 54 29 87 47 W 1012,0 13 0 0,0
15.03.2019 14:00:00 11,1 9,5 10,6 8,6 8,0 51 28 93 50 W 1011,8 10 0 0,0
15.03.2019 13:00:00 11,5 9,6 10,5 8,6 8,0 53 28 87 47 WZW 1011,8 14 0 0,0

tt = temperatuur
td = dauwpunt
tt 5cm = temperatuur 5cm
tt -20cm = temperatuur -20cm
tt -100cm = temperatuur -100cm
ff = windsnelheid
fx = windstoten
dd = windrichting
ppp = luchtdruk
vv = zicht
sd = Zonneschijnduur
rr = neerslag

Weerstations in de omgeving